sat.trackr.live / text

‹ back to catalog

IRIDIUM 163

NORAD 43575 · 2018-061G

PAYLOAD ACTIVE UNKNOWN

§ Identity

Operator
Country
US
Launch date
2018-07-25
Launch site
AFWTR
Launch vehicle
Mass (kg)
RCS (m²)

Purposes: comms

External: N2YO · Heavens-Above · Gunter

§ Orbital elements

Epoch: 2026-05-25T04:32:06.499104Z

Period
100.40 min
Inclination
86.3966°
Eccentricity
0.0002372
Mean motion
14.34217974 rev/d
Perigee alt
776.0 km
Apogee alt
779.4 km
Semi-major
7,155.8 km
B*
1.0826e-5
RAAN
66.3365°
Arg perigee
85.5496°
Mean anomaly
274.5970°
Rev number
41,008

§ Raw data

IRIDIUM 1631 43575U 18061G   26145.18896411  .00000050  00000+0  10826-4 0  99912 43575  86.3966  66.3365 0002372  85.5496 274.5970 14.34217974410083

JSON: /api/v1/satellites/43575 · /tle

For live sub-satellite position, see the globe view (requires WebGL).

§ Visibility from observer

Set your observer location to see the next 7 days of passes ≥ 10°. The values pass through the URL so the page stays shareable.

No JS? Fill the form by hand. The geolocation button needs JavaScript.